NIMBUS 2 DEB, 28617

Orbit data source: Space-Track

NIMBUS 2 DEB, 28617 is space debris in SSO originally from a launch on Sun, 15 May 1966 UTC launched from the Air Force Western Test Range (AFWTR). Debris objects in space refer to the collection of defunct objects orbiting the Earth. Examples of debris include non-operational satellites, rocket bodies, and fragments generated from explosions, collisions, or faulty payload assembly.

Loading next visibility...
Identifier
28617, 1966-040AG
Orbit
SSO
Country
Flag of USUS
Related business
Manufacturer
Unknown
Mission
Spacecraft
Bus & Motor
Unknown
Mass
Unknown
Launch date (UTC)
1966-05-15 (59 years ago)
Launch vehicle
Unknown
Launch site
Air Force Western Test Range (AFWTR)
Object type
Payload
Rocket body
Debris
Shape & HBR
Unknown shape, 0.1 m
Radar Cross Section
Small (<0.1 m²)

Expand to show TLE details & history
Last TLE update: 2 days ago

TLE from 2 days ago
0 NIMBUS 2 DEB
1 28617U 66040AG  25311.54356042  .00005525  00000-0  53437-2 0  9992
2 28617 100.4633 162.2592 0050457 261.0376 129.6133 13.79704096164468
Epoch: 2025-11-07T13:02Z
TLE epoch observation values (Epoch: 2025-11-07T13:02:43.620Z)
Latitude
30.57542°
Longitude
-86.64°
Altitude
992.419 km
Speed
7.346 km/s
True Right ascension
10h 24m 06s
True Declination
30° 25' 47"
Sunlit
Object was in daylight at epoch
Visualization orbit readout
Latitude
Unknown
Longitude
Unknown
Altitude
Unknown
Speed
Unknown
Apparent Right ascension
Unknown
Apparent Declination
Unknown
Sunlit
N/A
Visualization observer readout
Local Sidereal Time
03:56:24
Azimuth
Unknown
Elevation
Unknown
Doppler factor
Unknown
Orbital elements
Apogee altitude
999.277 km
Perigee altitude
925.202 km
Semi-major axis
7,340.376 km
Eccentricity
0.00505
Inclination
100.4633°
RAAN
162.2592°
Arg. of periapsis
261.0376°
True anomaly
130.05693°
Mean anomaly
129.6133°
Eccentric anomaly
129.83529°
Mean motion
3.45116 °/min
Orbital period
104.31 mins
BSTAR
0.0053437
Loading maneuver chart data...
Computing Atmospheric mass density...
Loading historical data...
Loading historical data...
Loading historical data...
Loading historical data...
Loading historical data...
Loading historical data...
Loading historical data...

Documentation

Showing up to 5 results
|